FW5429 Weather Reports


Display with metric or nautical units.
time (UTC)temp
F
wind
direction
speed
MPH
gust
MPH
rain 1hr
in
rain 24hr
in
rain mn
in
humidity
%
barometer
mb
20260506112510 53 208 1.0 3.0 0.00 0.00 0.00 86 1008.9
20260506112010 53 200 0.0 3.0 0.00 0.00 0.00 87 1009.1
20260506111527 53 0 0.0 3.0 0.00 0.00 0.00 87 1009.0
20260506111010 53 0 0.0 3.0 0.00 0.00 0.00 87 1009.0
20260506110509 52 0 0.0 4.0 0.00 0.00 0.00 87 1008.9
20260506110030 52 202 1.0 4.0 0.00 0.00 0.00 88 1009.0
20260506105507 52 211 0.0 2.0 0.00 0.00 0.00 89 1008.9
20260506105010 52 211 0.0 2.0 0.00 0.00 0.00 89 1008.9
20260506104538 51 0 0.0 2.0 0.00 0.00 0.00 89 1009.0
20260506104016 51 0 0.0 2.0 0.00 0.00 0.00 89 1009.2
20260506103510 51 0 0.0 2.0 0.00 0.00 0.00 89 1008.9
20260506103039 51 0 0.0 2.0 0.00 0.00 0.00 89 1009.0
20260506102516 51 0 0.0 2.0 0.00 0.00 0.00 89 1009.1
20260506102010 50 0 0.0 2.0 0.00 0.00 0.00 89 1009.1
20260506101528 50 0 0.0 2.0 0.00 0.00 0.00 89 1009.1
20260506101009 50 0 0.0 2.0 0.00 0.00 0.00 90 1008.8
20260506100516 50 211 0.0 2.0 0.00 0.00 0.00 90 1008.7
20260506100027 50 211 0.0 2.0 0.00 0.00 0.00 90 1008.9
20260506095510 49 0 0.0 0.0 0.00 0.00 0.00 90 1009.0
20260506095011 49 0 0.0 0.0 0.00 0.00 0.00 90 1009.0
20260506094528 49 0 0.0 0.0 0.00 0.00 0.00 90 1009.0
20260506094010 49 0 0.0 1.0 0.00 0.00 0.00 90 1008.9
20260506093511 49 0 0.0 1.0 0.00 0.00 0.00 89 1008.9
20260506093028 49 0 0.0 1.0 0.00 0.00 0.00 89 1008.8
20260506092509 49 0 0.0 1.0 0.00 0.00 0.00 89 1008.9
20260506092011 49 0 0.0 1.0 0.00 0.00 0.00 89 1008.7
20260506091528 50 0 0.0 1.0 0.00 0.00 0.00 89 1008.7
20260506091007 50 0 0.0 0.0 0.00 0.00 0.00 88 1008.7
20260506090510 50 0 0.0 1.0 0.00 0.00 0.00 88 1008.8
20260506090027 50 0 0.0 1.0 0.00 0.00 0.00 88 1008.9
20260506085510 50 0 0.0 1.0 0.00 0.00 0.00 88 1008.7
20260506085008 50 0 0.0 1.0 0.00 0.00 0.00 87 1008.7
20260506084558 50 0 0.0 1.0 0.00 0.00 0.00 87 1008.7
20260506084012 50 0 0.0 1.0 0.00 0.00 0.00 87 1008.7
20260506083511 50 211 0.0 2.0 0.00 0.00 0.00 87 1008.7
20260506083024 50 0 0.0 2.0 0.00 0.00 0.00 87 1008.6
20260506082508 50 0 0.0 1.0 0.00 0.00 0.00 86 1008.7
20260506082013 51 0 0.0 1.0 0.00 0.00 0.00 86 1008.6
20260506081537 51 0 0.0 1.0 0.00 0.00 0.00 86 1008.6
20260506081011 51 0 0.0 1.0 0.00 0.00 0.00 86 1008.5
20260506080508 51 0 0.0 1.0 0.00 0.00 0.00 85 1008.7
20260506073512 51 0 0.0 2.0 0.00 0.00 0.00 84 1008.3
20260506073026 52 0 0.0 2.0 0.00 0.00 0.00 84 1008.4
20260506072512 51 0 0.0 2.0 0.00 0.00 0.00 84 1008.3
20260506072013 51 0 0.0 4.0 0.00 0.00 0.00 84 1008.1
20260506071528 52 0 0.0 4.0 0.00 0.00 0.00 84 1008.1
20260506071009 52 0 0.0 2.0 0.00 0.00 0.00 84 1007.9
20260506070509 52 0 0.0 2.0 0.00 0.00 0.00 84 1007.9
20260506062512 52 0 0.0 3.0 0.00 0.00 0.00 82 1007.9
20260506062014 52 215 0.0 3.0 0.00 0.00 0.00 82 1007.8
20260506061526 52 0 0.0 3.0 0.00 0.00 0.00 82 1007.8
20260506061011 52 0 1.0 3.0 0.00 0.00 0.00 81 1007.8
20260506060510 53 0 0.0 3.0 0.00 0.00 0.00 81 1007.9
20260506051013 54 0 0.0 3.0 0.00 0.00 0.00 79 1008.0
20260506050511 54 0 0.0 3.0 0.00 0.00 0.00 79 1008.0
20260506045010 54 0 0.0 2.0 0.00 0.00 0.00 79 1008.0
20260506044525 54 0 0.0 3.0 0.00 0.00 0.00 79 1008.0
20260506043027 55 0 0.0 3.0 0.00 0.00 0.00 78 1008.0
20260506042511 55 0 0.0 2.0 0.00 0.00 0.00 78 1007.9
20260506042010 55 226 0.0 2.0 0.00 0.00 0.00 78 1007.9
20260506041528 55 0 0.0 3.0 0.00 0.00 0.00 78 1007.9
20260506041009 55 0 0.0 3.0 0.00 0.00 0.00 78 1007.9
20260506040509 55 243 0.0 2.0 0.00 0.00 0.00 78 1008.0
20260506040032 55 209 0.0 2.0 0.00 0.00 0.00 77 1007.9
20260506035511 55 0 0.0 2.0 0.00 0.00 0.00 77 1007.8
20260506035010 55 209 0.0 2.0 0.00 0.00 0.00 77 1007.9
20260506034529 55 209 0.0 3.0 0.00 0.00 0.00 77 1007.9
20260506034010 55 209 1.0 3.0 0.00 0.00 0.00 76 1007.7
20260506033509 56 209 0.0 2.0 0.00 0.00 0.00 76 1007.7
20260506033026 56 0 0.0 3.0 0.00 0.00 0.00 76 1007.8
20260506032510 56 178 0.0 3.0 0.00 0.00 0.00 76 1007.9
20260506032010 56 227 1.0 3.0 0.00 0.00 0.00 76 1007.8
20260506031539 56 200 1.0 3.0 0.00 0.00 0.00 75 1007.9
20260506031010 56 0 0.0 3.0 0.00 0.00 0.00 75 1007.8
20260506030512 56 196 0.0 1.0 0.00 0.00 0.00 75 1007.8
20260506030027 56 0 0.0 1.0 0.00 0.00 0.00 75 1007.7
20260506025507 57 196 0.0 1.0 0.00 0.00 0.00 74 1007.7
20260506025012 57 0 0.0 1.0 0.00 0.00 0.00 74 1007.8
20260506024533 57 0 0.0 1.0 0.00 0.00 0.00 74 1007.9
20260506024010 57 196 0.0 1.0 0.00 0.00 0.00 74 1007.8
20260506023510 57 0 0.0 1.0 0.00 0.00 0.00 74 1008.0
20260506023049 58 0 0.0 1.0 0.00 0.00 0.00 74 1007.8
20260506022507 58 0 0.0 1.0 0.00 0.00 0.00 73 1007.9
20260506022008 58 0 0.0 2.0 0.00 0.00 0.00 73 1007.9
20260506021543 58 0 0.0 2.0 0.00 0.00 0.00 73 1007.7
20260506021009 58 169 0.0 1.0 0.00 0.00 0.00 72 1007.8
20260506020507 59 0 0.0 1.0 0.00 0.00 0.00 72 1007.8
20260506020028 59 0 0.0 1.0 0.00 0.00 0.00 73 1008.0
20260506015509 59 0 0.0 1.0 0.00 0.00 0.00 72 1007.9
20260506015008 59 0 0.0 1.0 0.00 0.00 0.00 71 1007.9
20260506014526 59 0 0.0 1.0 0.00 0.00 0.00 71 1008.0
20260506014009 60 0 0.0 1.0 0.00 0.00 0.00 70 1007.9
20260506013513 60 0 0.0 1.0 0.00 0.00 0.00 70 1007.8
20260506013032 60 0 0.0 1.0 0.00 0.00 0.00 70 1007.9
20260506012510 60 0 0.0 2.0 0.00 0.00 0.00 69 1008.0
20260506012013 61 0 0.0 2.0 0.00 0.00 0.00 69 1007.9
20260506011526 61 0 0.0 0.0 0.00 0.00 0.00 68 1007.7
20260506011007 61 0 0.0 1.0 0.00 0.00 0.00 68 1007.7
20260506010510 61 0 0.0 1.0 0.00 0.00 0.00 68 1007.7
20260506010029 61 0 0.0 1.0 0.00 0.00 0.00 67 1007.4
20260506005508 61 0 0.0 2.0 0.00 0.00 0.00 67 1007.4
20260506005011 62 0 0.0 2.0 0.00 0.00 0.00 67 1007.4
20260506004529 62 200 0.0 2.0 0.00 0.00 0.00 66 1007.4
20260506004011 62 0 0.0 2.0 0.00 0.00 0.00 66 1007.4
20260506003517 62 0 0.0 3.0 0.00 0.00 0.00 66 1007.3
20260506003027 63 102 1.0 3.0 0.00 0.00 0.00 65 1007.3
20260506002507 63 0 0.0 3.0 0.00 0.00 0.00 65 1007.1
20260506002011 63 0 0.0 3.0 0.00 0.00 0.00 64 1007.0
20260506001527 63 98 0.0 2.0 0.00 0.00 0.00 64 1006.8
20260506001012 64 0 0.0 2.0 0.00 0.00 0.00 64 1006.6
20260506000511 64 88 0.0 3.0 0.00 0.00 0.00 63 1006.4
20260506000028 64 333 0.0 3.0 0.00 0.00 0.00 63 1006.4
20260505235511 64 0 0.0 3.0 0.00 0.00 0.00 63 1006.1
20260505235007 64 0 0.0 4.0 0.00 0.00 0.00 63 1006.2
20260505234528 64 0 1.0 4.0 0.00 0.00 0.00 63 1006.1
20260505234007 64 274 1.0 4.0 0.00 0.00 0.00 63 1006.0
20260505233511 64 257 1.0 6.0 0.00 0.00 0.00 63 1005.6
20260505233028 64 211 1.0 6.0 0.00 0.00 0.00 63 1006.0
20260505232508 64 98 2.0 6.0 0.00 0.00 0.00 64 1006.0
20260505232010 64 17 1.0 3.0 0.00 0.00 0.00 63 1006.1
20260505231541 63 105 1.0 4.0 0.00 0.00 0.00 64 1006.2
20260505231013 63 92 1.0 6.0 0.00 0.00 0.00 64 1006.1
20260505230510 63 62 1.0 9.0 0.00 0.00 0.00 63 1006.1
20260505230027 63 178 3.0 11.0 0.00 0.00 0.00 63 1004.9
20260505225511 63 260 3.0 11.0 0.00 0.00 0.00 63 1004.6
20260505225017 63 203 3.0 11.0 0.00 0.00 0.00 62 1004.4
20260505224528 64 170 3.0 11.0 0.00 0.00 0.00 62 1004.4
20260505224009 64 209 4.0 14.0 0.00 0.00 0.00 62 1004.3
20260505223510 64 231 4.0 14.0 0.00 0.00 0.00 61 1004.2
20260505223028 64 184 4.0 14.0 0.00 0.00 0.00 61 1004.2
20260505222512 64 178 5.0 14.0 0.00 0.00 0.00 61 1004.1
20260505222012 65 207 3.0 13.0 0.00 0.00 0.00 60 1004.3
20260505221526 65 234 5.0 13.0 0.00 0.00 0.00 61 1004.1
20260505221011 65 207 4.0 10.0 0.00 0.00 0.00 61 1004.0
20260505220512 65 241 4.0 10.0 0.00 0.00 0.00 61 1004.2
20260505220027 65 202 4.0 12.0 0.00 0.00 0.00 61 1004.0
20260505215511 65 229 3.0 12.0 0.00 0.00 0.00 60 1003.9
20260505215012 65 204 4.0 19.0 0.00 0.00 0.00 62 1003.9
20260505214535 64 211 4.0 19.0 0.00 0.00 0.00 62 1003.9
20260505214018 64 217 5.0 15.0 0.00 0.00 0.00 62 1003.9
20260505213510 64 231 4.0 15.0 0.00 0.00 0.00 62 1003.8
20260505213035 64 166 5.0 13.0 0.00 0.00 0.00 63 1003.9
20260505212508 64 193 4.0 14.0 0.00 0.00 0.00 63 1003.8
20260505212012 64 213 6.0 14.0 0.00 0.00 0.00 62 1003.9
20260505211526 64 273 3.0 14.0 0.00 0.00 0.00 62 1003.9
20260505211008 64 203 5.0 12.0 0.00 0.00 0.00 62 1003.8
20260505210511 64 191 5.0 10.0 0.00 0.00 0.00 61 1003.9
20260505210026 64 211 4.0 13.0 0.00 0.00 0.00 62 1003.8
20260505205516 65 263 5.0 16.0 0.00 0.00 0.00 61 1003.8
20260505205012 66 218 5.0 16.0 0.00 0.00 0.00 59 1004.0
20260505204010 67 160 4.0 13.0 0.00 0.00 0.00 58 1003.8
20260505203510 67 185 4.0 13.0 0.00 0.00 0.00 58 1003.9
20260505203047 68 205 5.0 11.0 0.00 0.00 0.00 57 1003.9
20260505202511 68 196 5.0 19.0 0.00 0.00 0.00 56 1003.9
20260505202009 68 181 6.0 19.0 0.00 0.00 0.00 57 1003.8
20260505201533 68 131 7.0 18.0 0.00 0.00 0.00 56 1004.0
20260505201011 68 104 4.0 11.0 0.00 0.00 0.00 56 1003.8
20260505200511 69 108 5.0 13.0 0.00 0.00 0.00 55 1003.9
20260505200026 69 227 6.0 13.0 0.00 0.00 0.00 55 1004.0
20260505195511 69 207 4.0 13.0 0.00 0.00 0.00 55 1004.2
20260505195012 69 217 4.0 12.0 0.00 0.00 0.00 55 1004.0
20260505194528 69 205 4.0 12.0 0.00 0.00 0.00 56 1004.3
20260505194010 69 202 4.0 10.0 0.00 0.00 0.00 57 1004.2
20260505193511 69 135 3.0 12.0 0.00 0.00 0.00 58 1004.4
20260505193031 68 198 3.0 12.0 0.00 0.00 0.00 58 1004.7
20260505192512 68 222 4.0 10.0 0.00 0.00 0.00 58 1004.8
20260505192010 69 212 5.0 11.0 0.00 0.00 0.00 57 1004.9
20260505191530 69 175 2.0 11.0 0.00 0.00 0.00 56 1004.9
20260505191011 70 215 5.0 14.0 0.00 0.00 0.00 54 1005.0
20260505190510 70 210 5.0 14.0 0.00 0.00 0.00 55 1005.0
20260505190030 70 205 3.0 9.0 0.00 0.00 0.00 57 1005.2
20260505185518 69 210 3.0 10.0 0.00 0.00 0.00 57 1005.2
20260505185010 69 259 4.0 11.0 0.00 0.00 0.00 56 1005.4
20260505184534 69 190 3.0 11.0 0.00 0.00 0.00 57 1005.4
20260505184011 69 196 4.0 11.0 0.00 0.00 0.00 56 1005.5
20260505183512 69 204 4.0 9.0 0.00 0.00 0.00 56 1005.4
20260505183027 69 215 3.0 9.0 0.00 0.00 0.00 57 1005.4
20260505182510 68 221 4.0 11.0 0.00 0.00 0.00 57 1005.5
20260505182016 68 218 4.0 11.0 0.00 0.00 0.00 57 1005.5
20260505181533 68 217 3.0 11.0 0.00 0.00 0.00 58 1005.5
20260505181011 67 60 4.0 15.0 0.00 0.00 0.00 59 1005.5
20260505180512 67 213 5.0 15.0 0.00 0.00 0.00 58 1005.5
20260505180030 67 189 4.0 14.0 0.00 0.00 0.00 58 1005.4
20260505175513 67 180 5.0 14.0 0.00 0.00 0.00 57 1005.5
20260505175008 68 134 5.0 14.0 0.00 0.00 0.00 57 1005.6
20260505174538 68 196 4.0 13.0 0.00 0.00 0.00 57 1005.7
20260505174009 68 185 6.0 14.0 0.00 0.00 0.00 57 1005.8
20260505173508 69 221 5.0 14.0 0.00 0.00 0.00 55 1005.8
20260505173026 68 227 4.0 13.0 0.00 0.00 0.00 57 1005.8
20260505172511 68 190 4.0 10.0 0.00 0.00 0.00 57 1005.8
20260505172012 68 189 3.0 11.0 0.00 0.00 0.00 57 1005.8
20260505171528 68 217 4.0 11.0 0.00 0.00 0.00 55 1005.9
20260505171011 69 130 2.0 11.0 0.00 0.00 0.00 55 1006.0
20260505170508 70 123 2.0 10.0 0.00 0.00 0.00 54 1005.9
20260505170027 70 203 4.0 10.0 0.00 0.00 0.00 54 1006.0
20260505165511 70 119 3.0 10.0 0.00 0.00 0.00 55 1006.2
20260505165008 71 209 4.0 10.0 0.00 0.00 0.00 53 1006.3
20260505164525 71 212 2.0 8.0 0.00 0.00 0.00 53 1006.3
20260505164010 71 306 2.0 9.0 0.00 0.00 0.00 53 1006.4
20260505163511 72 211 4.0 12.0 0.00 0.00 0.00 52 1006.5
20260505163133 72 194 3.0 12.0 0.00 0.00 0.00 52 1006.7
20260505162509 72 188 2.0 10.0 0.00 0.00 0.00 51 1006.9
20260505162010 73 138 2.0 10.0 0.00 0.00 0.00 51 1006.8
20260505161528 74 217 3.0 7.0 0.00 0.00 0.00 49 1006.9
20260505161011 75 145 2.0 6.0 0.00 0.00 0.00 48 1007.1
20260505160512 76 213 2.0 8.0 0.00 0.00 0.00 47 1007.2
20260505153026 72 130 2.0 5.0 0.00 0.00 0.00 52 1007.6
20260505152511 72 85 2.0 9.0 0.00 0.00 0.00 52 1007.6
20260505152015 72 0 2.0 9.0 0.00 0.00 0.00 52 1007.8
20260505151531 71 163 2.0 9.0 0.00 0.00 0.00 52 1007.7
20260505151009 69 199 2.0 8.0 0.00 0.00 0.00 55 1007.7
20260505150511 67 232 2.0 5.0 0.00 0.00 0.00 59 1007.8
20260505140510 62 136 0.0 7.0 0.00 0.00 0.00 66 1007.8
20260505125010 60 180 1.0 5.0 0.00 0.00 0.00 68 1008.6
20260505124529 60 244 1.0 5.0 0.00 0.00 0.00 67 1008.3
20260505124010 59 225 2.0 4.0 0.00 0.00 0.00 68 1008.3
20260505123508 59 232 1.0 5.0 0.00 0.00 0.00 68 1008.1
20260505123026 59 216 1.0 5.0 0.00 0.00 0.00 69 1007.9
20260505122509 59 214 1.0 4.0 0.00 0.00 0.00 69 1008.0
20260505122013 59 195 1.0 4.0 0.00 0.00 0.00 68 1008.1
20260505121526 59 0 1.0 3.0 0.00 0.00 0.00 68 1008.0
20260505121010 58 179 1.0 6.0 0.00 0.00 0.00 69 1008.1
20260505120510 57 137 2.0 6.0 0.00 0.00 0.00 70 1008.2
20260505120026 57 0 2.0 5.0 0.00 0.00 0.00 70 1008.2
20260505115515 57 227 1.0 3.0 0.00 0.00 0.00 70 1008.2
20260505115009 57 228 1.0 3.0 0.00 0.00 0.00 71 1008.1
20260505114527 57 213 1.0 3.0 0.00 0.00 0.00 71 1008.3
20260505114011 56 0 0.0 3.0 0.00 0.00 0.00 72 1008.4
20260505113512 55 210 0.0 3.0 0.00 0.00 0.00 74 1008.3
20260505113030 55 205 1.0 3.0 0.00 0.00 0.00 74 1008.4